Temp
18 19 19 20 20 21 21 22 22 22 23 23 23 23 23 23 24 24 24 24 24 23 23 23 23 22 22 22 22 22 25 26 26 26 26 24 25 23 22 23 22 21 21 20 20
18 19 19 20 20 21 21 22 22 23 23 23 23 23 23 24 24 24 25 24 24 24 23 23 23 22 22 22 22 23 25 26 26 26 26 24 25 24 24 23 22 20 20 21 20
18 19 20 20 21 21 21 22 22 23 23 23 23 23 24 24 24 25 25 25 24 24 23 23 23 23 23 23 23 23 26 26 26 26 26 25 25 24 24 24 23 21 20 19 20
18 19 20 20 21 21 21 22 22 23 23 23 24 24 24 24 26 25 25 25 24 24 24 23 23 23 25 25 23 26 25 26 26 26 26 25 25 25 25 25 23 22 20 19 19
19 19 20 20 21 21 22 22 23 23 23 24 24 24 24 25 25 25 26 25 24 24 24 24 24 24 25 25 24 26 27 26 26 26 26 25 25 26 24 23 22 21 20 20 20
19 19 20 21 21 22 22 22 23 23 23 24 24 24 25 26 25 25 25 25 25 24 24 24 24 24 25 25 25 26 26 26 26 26 26 27 25 25 24 22 21 21 21 20 20
19 20 20 21 21 22 22 23 23 23 24 24 24 24 25 25 25 25 25 25 24 24 24 24 24 24 24 25 24 26 27 28 27 26 27 27 26 26 24 23 22 21 21 21 20
19 20 20 21 22 22 22 23 23 23 24 24 24 25 25 25 25 25 25 25 24 24 24 24 24 24 24 24 25 27 26 27 27 27 26 27 27 27 24 23 23 22 21 21 21
20 20 21 21 22 22 23 23 23 23 24 24 24 25 25 25 25 25 25 25 25 25 24 24 24 24 25 27 25 24 25 26 27 27 27 27 27 27 23 23 23 22 22 22 21
20 21 21 21 22 22 23 23 23 24 24 24 24 24 26 25 25 25 24 25 25 25 24 24 24 24 24 26 25 26 26 25 26 26 27 27 27 27 24 24 24 23 23 22 22
20 21 21 22 22 22 23 23 23 23 24 25 25 26 26 25 25 25 25 25 25 25 26 23 27 25 24 25 25 25 23 25 26 27 26 27 27 28 25 24 25 24 23 23 23
21 21 21 22 22 23 23 23 23 23 25 25 25 26 26 26 26 25 25 25 25 26 24 26 26 25 26 25 25 25 25 26 26 27 26 27 26 28 26 24 25 25 24 24 24
21 21 22 22 23 23 23 23 23 23 24 25 26 26 27 26 26 26 25 25 25 24 24 26 26 24 25 26 26 26 26 25 26 26 25 24 26 26 25 25 24 24 24 24 24
21 22 22 23 23 24 23 24 24 24 27 27 27 27 27 27 27 27 26 26 24 25 24 26 25 25 25 26 26 26 25 25 25 26 26 24 27 27 25 24 24 24 24 24 24
21 22 23 23 24 24 24 25 25 25 26 27 27 27 27 28 26 25 26 26 26 24 25 26 25 25 25 26 25 25 25 25 25 25 25 25 25 28 23 26 25 24 24 24 24
22 23 23 24 24 24 25 25 25 27 25 27 27 27 28 27 27 25 25 26 24 25 24 24 23 25 26 26 26 25 25 24 24 23 24 23 24 29 29 26 26 24 23 23 22
22 23 24 24 24 25 25 25 27 27 26 27 27 27 28 27 27 27 27 26 27 26 26 26 25 25 25 25 25 25 25 26 26 25 27 22 23 28 27 25 23 23 23 22 22
23 23 24 24 24 25 26 27 26 26 26 26 26 26 28 27 28 27 26 27 26 27 26 27 28 25 26 26 27 24 25 27 25 27 28 22 26 31 24 22 21 20 21 20 20
23 24 24 24 25 25 26 25 27 26 26 27 27 27 27 27 27 27 27 28 28 27 27 26 27 26 26 25 27 24 25 26 26 22 25 27 27 28 24 25 21 21 20 19 19
24 24 24 24 25 25 25 23 25 24 26 27 28 27 28 27 28 27 26 27 27 26 26 27 26 27 26 26 24 26 26 27 25 25 25 27 26 29 29 27 24 22 21 19 17
24 25 24 24 25 25 26 24 24 24 25 28 27 27 27 27 27 27 27 27 27 25 25 26 27 27 26 26 28 25 26 24 25 25 26 26 27 27 26 26 23 23 21 19 17
24 24 23 24 24 16 24 23 23 26 25 27 27 27 27 26 27 27 27 27 24 25 26 25 27 27 28 25 24 26 27 27 27 26 24 24 26 25 25 23 21 21 20 17 17
24 23 23 24 25 24 22 24 24 26 25 27 27 26 25 25 27 26 26 26 24 26 26 25 26 27 28 27 26 27 26 24 24 24 26 25 26 26 24 24 23 20 19 16 16
24 24 23 23 21 23 23 25 26 24 24 23 25 25 26 25 24 26 26 26 24 24 22 25 25 27 28 27 26 26 26 25 26 26 26 26 26 27 27 28 26 21 19 16 15
23 20 20 24 22 21 21 22 25 26 25 24 26 26 26 26 25 26 25 26 26 24 23 26 26 24 25 25 25 26 27 26 25 26 25 27 26 27 27 24 21 21 18 17 16
21 20 19 18 17 21 19 23 25 25 25 25 26 25 25 26 26 26 26 25 26 25 25 24 25 23 26 26 25 24 26 26 26 25 24 25 25 27 21 19 19 18 17 17 17
19 18 19 16 20 22 23 23 24 23 24 24 25 25 25 25 23 24 24 23 23 25 25 25 24 23 25 23 23 24 25 26 26 25 26 25 27 21 22 20 18 17 16 17 16
Height
1514 1512 1511 1510 1510 1510 1510 1510 1511 1511 1512 1514 1515 1517 1518 1519 1519 1520 1520 1521 1520 1520 1520 1521 1521 1520 1519 1519 1518 1519 1521 1526 1525 1524 1525 1529 1530 1533 1534 1536 1538 1539 1540 1543 1545
1513 1512 1510 1509 1510 1510 1510 1510 1511 1512 1513 1514 1515 1517 1518 1519 1519 1519 1520 1520 1520 1520 1522 1521 1521 1520 1520 1521 1520 1519 1522 1523 1521 1520 1521 1527 1528 1531 1534 1536 1538 1538 1540 1543 1546
1513 1511 1509 1509 1509 1509 1510 1511 1511 1512 1513 1514 1515 1517 1518 1519 1519 1519 1520 1520 1521 1522 1523 1522 1522 1521 1521 1521 1520 1520 1522 1521 1521 1520 1522 1524 1529 1531 1532 1534 1534 1536 1538 1541 1545
1512 1510 1509 1508 1508 1508 1509 1510 1511 1512 1513 1514 1516 1517 1518 1519 1522 1519 1520 1521 1522 1523 1523 1523 1523 1523 1522 1522 1522 1521 1521 1521 1521 1521 1522 1525 1528 1530 1531 1531 1532 1536 1539 1541 1543
1512 1510 1508 1507 1507 1508 1508 1509 1510 1511 1513 1514 1516 1517 1518 1519 1520 1519 1520 1522 1523 1524 1523 1523 1524 1523 1522 1523 1524 1521 1520 1521 1521 1521 1523 1526 1527 1529 1532 1531 1533 1537 1540 1543 1546
1510 1509 1507 1506 1506 1507 1507 1509 1510 1511 1513 1514 1516 1517 1518 1519 1519 1520 1521 1523 1524 1524 1524 1524 1525 1525 1524 1524 1524 1521 1520 1519 1520 1521 1523 1525 1527 1529 1532 1532 1534 1537 1539 1543 1546
1509 1508 1506 1505 1505 1505 1507 1508 1509 1511 1513 1515 1516 1517 1518 1521 1520 1520 1522 1524 1524 1526 1525 1524 1524 1525 1525 1524 1524 1523 1522 1519 1522 1522 1524 1525 1528 1527 1529 1532 1533 1536 1540 1542 1544
1507 1506 1505 1505 1504 1505 1506 1508 1509 1511 1513 1514 1516 1517 1519 1519 1520 1521 1522 1524 1525 1526 1526 1525 1524 1524 1524 1524 1524 1523 1524 1529 1524 1523 1524 1524 1529 1523 1526 1529 1532 1535 1537 1541 1543
1505 1505 1504 1504 1504 1504 1506 1507 1509 1511 1513 1515 1517 1517 1519 1519 1520 1522 1524 1526 1526 1527 1526 1525 1525 1525 1524 1523 1528 1527 1535 1533 1528 1524 1523 1525 1523 1521 1525 1527 1529 1533 1534 1536 1540
1503 1503 1503 1504 1504 1505 1506 1508 1510 1512 1514 1515 1517 1520 1518 1519 1520 1522 1525 1526 1527 1526 1527 1526 1525 1526 1527 1527 1541 1535 1534 1533 1531 1525 1522 1522 1519 1519 1522 1525 1525 1528 1531 1533 1535
1502 1502 1502 1503 1504 1505 1507 1509 1514 1516 1514 1514 1514 1515 1516 1518 1521 1524 1525 1526 1526 1527 1526 1527 1525 1532 1530 1527 1526 1528 1533 1530 1523 1519 1521 1516 1514 1512 1518 1522 1524 1524 1526 1527 1528
1500 1501 1502 1503 1504 1506 1508 1509 1511 1513 1513 1512 1513 1515 1517 1518 1521 1523 1525 1528 1527 1527 1528 1526 1528 1526 1525 1525 1527 1529 1531 1527 1521 1520 1523 1517 1512 1509 1512 1513 1516 1518 1521 1522 1525
1499 1500 1502 1503 1505 1507 1509 1510 1510 1511 1512 1512 1512 1513 1516 1519 1520 1522 1525 1525 1526 1528 1528 1528 1524 1527 1526 1525 1526 1527 1527 1529 1528 1521 1522 1522 1511 1507 1507 1510 1513 1514 1517 1520 1521
1499 1500 1502 1504 1509 1508 1509 1509 1508 1509 1510 1512 1511 1512 1514 1516 1520 1521 1523 1525 1526 1529 1528 1526 1525 1526 1527 1528 1527 1530 1528 1526 1526 1526 1531 1526 1529 1507 1505 1506 1508 1510 1512 1513 1515
1499 1500 1502 1505 1507 1509 1510 1508 1508 1509 1534 1512 1511 1512 1514 1516 1518 1521 1522 1524 1525 1528 1530 1528 1526 1527 1528 1526 1526 1532 1528 1528 1526 1529 1531 1528 1533 1503 1507 1503 1504 1503 1505 1507 1509
1499 1501 1504 1506 1508 1509 1508 1508 1509 1515 1536 1513 1511 1512 1514 1516 1518 1521 1523 1525 1526 1527 1528 1527 1527 1526 1524 1524 1525 1527 1528 1531 1531 1534 1544 1536 1535 1505 1499 1501 1499 1499 1499 1502 1505
1498 1501 1505 1507 1509 1508 1508 1509 1515 1522 1514 1515 1512 1511 1513 1517 1518 1519 1521 1523 1525 1533 1531 1524 1524 1523 1523 1526 1526 1528 1533 1539 1542 1544 1536 1537 1537 1504 1498 1499 1500 1498 1497 1498 1500
1498 1502 1505 1507 1508 1509 1509 1510 1526 1516 1513 1509 1510 1512 1515 1515 1515 1517 1519 1521 1521 1522 1528 1529 1528 1519 1519 1519 1522 1529 1529 1535 1553 1539 1529 1536 1527 1495 1498 1499 1499 1498 1495 1495 1496
1499 1502 1505 1507 1508 1509 1510 1518 1513 1512 1509 1509 1511 1514 1517 1515 1516 1517 1518 1515 1512 1515 1525 1528 1525 1515 1515 1517 1518 1530 1532 1523 1530 1542 1538 1518 1511 1494 1494 1494 1498 1498 1499 1498 1499
1500 1503 1506 1508 1508 1509 1510 1518 1511 1509 1508 1508 1512 1512 1517 1516 1517 1517 1519 1512 1512 1513 1513 1515 1526 1513 1514 1516 1519 1517 1520 1528 1531 1545 1543 1521 1523 1504 1490 1493 1496 1497 1496 1497 1499
1502 1504 1506 1508 1509 1509 1511 1512 1509 1507 1507 1507 1510 1514 1514 1516 1516 1519 1519 1513 1512 1514 1514 1515 1518 1518 1516 1515 1513 1521 1520 1528 1527 1530 1532 1534 1516 1497 1497 1494 1493 1494 1496 1498 1499
1502 1504 1506 1508 1510 1514 1511 1511 1509 1505 1505 1505 1506 1508 1511 1516 1518 1519 1517 1515 1513 1512 1514 1516 1515 1520 1515 1515 1516 1513 1514 1514 1524 1529 1531 1531 1519 1497 1495 1493 1493 1490 1493 1497 1496
1502 1505 1507 1508 1510 1511 1511 1509 1509 1507 1507 1506 1507 1508 1511 1515 1519 1517 1516 1514 1512 1512 1513 1515 1519 1522 1519 1516 1514 1513 1515 1519 1520 1523 1521 1526 1511 1494 1493 1489 1486 1487 1490 1491 1497
1501 1506 1509 1509 1510 1510 1510 1509 1508 1508 1508 1509 1509 1509 1511 1516 1517 1516 1514 1512 1512 1512 1512 1512 1517 1514 1521 1515 1514 1516 1514 1514 1513 1519 1511 1511 1500 1493 1487 1483 1482 1484 1487 1491 1492
1500 1505 1506 1508 1510 1511 1512 1511 1508 1508 1508 1508 1509 1509 1510 1516 1516 1515 1514 1512 1511 1512 1512 1510 1514 1517 1512 1513 1514 1510 1508 1507 1513 1505 1513 1498 1497 1490 1484 1486 1484 1484 1486 1489 1492
1500 1504 1506 1508 1510 1510 1511 1509 1508 1507 1508 1508 1507 1509 1510 1511 1510 1513 1512 1513 1510 1510 1510 1511 1514 1517 1512 1507 1511 1513 1505 1503 1502 1501 1503 1497 1496 1484 1487 1487 1484 1484 1486 1487 1490
1502 1503 1504 1508 1509 1509 1506 1507 1507 1508 1508 1507 1507 1508 1509 1509 1510 1511 1510 1510 1510 1510 1508 1511 1512 1517 1515 1514 1513 1514 1501 1496 1493 1492 1490 1494 1482 1486 1483 1484 1483 1482 1483 1483 1486
Wind_Speed
8 7 6 5 3 1 2 3 5 6 7 7 7 6 5 4 3 2 2 5 6 7 5 3 3 6 6 3 4 1 3 3 2 4 6 13 5 6 4 16 5 1 10 19 23
9 7 6 5 3 1 2 3 5 7 8 8 7 6 4 3 2 2 5 6 7 6 4 4 2 4 2 3 2 3 2 2 1 2 5 16 12 11 8 10 4 8 17 25 23
9 7 6 4 3 1 2 4 6 7 8 8 7 5 4 1 1 3 9 6 7 7 4 5 4 3 3 4 4 1 2 0 2 1 9 15 10 6 12 6 9 21 26 27 24
9 7 6 4 3 1 2 4 6 7 8 8 7 6 4 2 3 3 10 7 5 6 3 2 1 1 2 3 2 1 1 2 3 5 6 10 10 6 13 2 9 24 27 26 25
9 7 5 4 3 1 2 5 7 7 9 8 8 6 4 1 3 3 9 8 7 5 4 4 2 2 3 2 2 2 2 2 1 3 5 9 8 3 10 3 15 24 24 23 21
9 6 5 3 2 1 3 5 7 8 9 9 8 6 4 3 3 7 9 9 9 7 3 2 2 3 2 2 1 4 6 2 2 2 3 7 5 5 7 11 19 24 23 21 21
8 5 4 3 2 2 4 6 7 8 8 9 8 6 3 3 2 8 10 10 9 5 3 6 2 1 1 3 1 2 4 7 9 5 3 8 5 8 10 17 21 23 21 21 21
7 4 3 3 2 4 5 7 7 8 8 8 7 5 2 2 4 11 10 10 8 4 3 4 3 2 1 1 2 1 2 2 5 2 3 9 7 7 15 22 21 23 22 21 21
5 3 3 3 3 5 6 7 8 8 8 7 6 4 3 2 6 10 8 5 4 3 2 4 3 1 1 1 2 4 4 2 2 5 2 4 7 5 16 21 21 22 24 24 23
4 3 3 3 5 7 9 9 8 8 8 6 3 2 1 4 9 11 11 10 3 3 1 1 2 2 3 3 1 2 2 2 2 2 3 6 13 5 17 21 25 24 23 24 24
2 4 4 5 8 10 11 10 6 3 6 2 4 3 6 8 10 10 9 4 4 3 1 3 1 3 4 5 6 6 4 4 7 7 5 12 14 12 17 20 22 25 26 26 28
2 5 6 8 10 13 10 4 5 4 2 7 7 5 9 9 6 10 8 3 2 2 2 1 1 7 6 4 4 2 2 3 7 5 5 8 16 10 17 26 28 29 27 28 27
4 6 8 10 13 12 7 5 1 3 1 1 4 5 6 9 5 10 8 3 3 1 1 2 2 5 4 3 6 2 1 1 4 6 2 9 9 5 9 19 23 26 26 27 27
6 8 10 13 12 9 4 3 4 4 1 2 1 3 10 10 4 8 9 2 2 1 2 4 2 2 3 5 1 4 4 5 5 4 4 6 6 5 1 8 18 25 28 30 30
7 10 14 12 12 6 2 4 5 5 3 2 3 7 7 6 9 6 11 4 2 3 3 3 2 3 4 2 2 2 3 4 3 2 7 3 4 5 1 5 10 20 27 31 32
8 12 16 13 9 4 4 5 2 1 3 3 3 5 7 2 3 5 3 3 5 1 0 3 1 4 4 2 1 4 2 4 3 1 2 2 3 8 3 2 4 5 19 24 22
9 13 15 11 6 5 4 1 0 1 2 4 3 5 5 3 4 6 7 7 5 1 1 2 3 2 5 4 1 4 1 3 2 1 2 0 4 11 4 7 7 9 8 16 19
10 14 14 8 4 3 1 0 1 1 2 3 2 5 5 5 2 4 5 6 6 5 2 4 4 7 9 5 1 5 3 3 5 5 6 2 5 4 2 5 5 4 4 5 9
12 15 12 6 2 2 1 1 2 3 1 4 4 4 4 2 3 4 6 5 5 13 7 4 4 2 6 4 4 6 6 1 3 1 4 2 5 10 2 3 2 2 3 3 5
13 14 10 6 2 0 2 2 2 3 1 3 3 1 4 2 4 2 1 2 1 5 6 1 6 2 2 4 3 3 5 3 2 4 7 4 5 6 12 12 8 6 8 6 5
14 7 8 8 2 0 1 2 3 3 4 2 3 4 3 3 2 2 2 1 2 2 6 5 4 1 2 5 4 4 4 2 0 3 6 8 6 2 10 11 13 10 9 7 6
5 2 9 7 1 2 1 2 3 3 3 1 3 3 2 4 4 4 2 3 6 4 4 3 2 4 0 2 3 2 2 2 3 5 3 4 8 3 8 13 12 12 8 7 7
5 5 7 5 2 0 2 2 2 2 3 2 2 3 3 2 1 2 1 1 7 3 4 7 3 3 3 4 3 3 3 3 2 1 9 9 10 3 11 15 15 8 10 13 8
5 3 2 2 3 1 1 2 1 2 3 3 3 2 3 2 1 2 1 0 4 3 3 4 2 5 9 5 1 4 5 6 6 6 14 12 19 15 15 16 20 11 10 11 14
3 2 3 3 2 1 1 1 0 2 2 2 2 1 4 3 2 2 1 2 2 2 1 1 3 3 4 4 4 7 9 10 10 15 11 19 17 17 18 15 19 14 7 9 8
3 3 3 3 3 4 1 2 2 2 1 1 4 3 3 3 5 5 4 3 4 2 1 1 3 2 6 8 9 11 13 14 16 16 14 18 15 14 8 13 10 3 4 8 7
6 5 3 1 3 3 3 3 3 2 2 2 3 3 3 1 3 5 6 2 2 3 3 2 3 3 14 4 6 11 15 16 12 8 8 12 13 6 13 11 9 6 7 9 9
Wind_Direction
357 350 356 358 353 27 106 133 150 157 161 164 163 165 167 166 179 206 83 136 145 127 119 85 47 62 62 64 54 63 65 81 93 187 120 151 141 154 105 141 142 82 153 154 155
353 347 349 346 338 19 115 142 154 162 163 168 169 166 169 186 229 232 158 154 162 149 123 60 81 59 56 26 20 63 92 84 91 241 160 164 160 155 142 157 141 114 143 156 160
350 343 340 336 327 353 132 151 158 166 164 167 165 167 169 178 88 148 175 160 167 164 136 92 66 50 58 26 3 86 89 346 173 150 151 158 161 154 155 198 193 164 157 162 167
347 339 332 327 316 318 151 158 164 165 166 165 163 167 165 143 105 163 184 174 163 160 119 109 83 86 72 56 337 8 263 265 76 112 120 157 154 154 171 298 188 169 165 166 173
343 333 324 316 304 271 170 161 166 166 166 161 162 163 163 143 59 137 171 176 159 154 103 99 80 77 84 122 160 268 349 252 316 92 75 149 166 147 196 123 153 162 167 176 182
337 324 313 301 286 225 173 163 166 166 165 163 164 162 147 111 66 135 144 156 160 147 132 35 38 54 95 166 240 343 336 319 49 227 141 164 161 176 185 153 156 170 176 183 188
330 315 297 280 249 202 169 162 166 165 163 164 165 169 160 94 74 146 146 154 161 135 72 11 34 133 195 174 143 352 115 104 39 105 139 172 199 227 179 172 169 177 184 189 196
324 299 273 254 215 186 168 160 159 160 160 165 164 166 122 136 128 158 160 170 167 168 357 6 3 346 69 311 53 68 68 72 2 10 106 196 257 219 181 177 182 185 187 196 202
314 275 244 221 187 172 156 151 149 151 154 157 158 165 147 154 155 159 136 151 167 209 306 282 321 56 7 164 89 12 111 55 160 28 134 220 271 212 184 188 186 192 194 196 205
300 239 212 190 165 157 146 140 138 144 150 144 160 188 179 120 142 142 132 109 115 164 190 321 25 58 45 21 40 62 143 98 260 278 257 251 263 232 196 200 196 197 202 202 207
266 207 185 166 156 151 141 128 124 129 185 185 174 109 117 119 123 151 165 167 128 135 268 19 348 92 116 130 150 145 173 195 230 227 248 248 253 246 203 211 213 206 206 210 210
205 185 169 161 152 144 133 114 114 108 231 236 229 187 120 136 126 148 153 175 155 77 314 240 242 199 202 200 146 155 306 280 287 280 270 310 269 252 208 212 215 214 212 215 218
182 170 164 152 146 140 117 117 77 319 228 191 206 207 181 158 145 168 169 142 79 123 319 252 282 186 235 185 197 169 230 233 297 338 223 312 274 254 236 227 223 227 226 227 223
171 165 153 143 144 145 118 357 324 187 152 128 197 157 150 150 121 184 190 145 83 180 210 275 348 231 233 272 278 35 6 338 314 318 309 359 309 289 241 230 224 230 226 228 227
164 157 149 143 138 125 2 348 122 147 120 128 108 148 157 167 138 171 183 188 189 160 257 28 248 294 301 2 83 48 44 20 348 308 314 8 278 283 254 273 244 239 233 233 233
161 157 151 136 129 67 28 106 98 228 121 135 121 156 152 109 109 124 158 139 103 130 159 272 279 232 249 340 132 106 354 38 53 46 265 302 261 287 316 245 292 306 236 232 231
158 158 154 141 120 48 72 108 218 103 328 153 144 168 158 143 171 176 179 182 212 247 341 287 213 220 212 250 149 198 282 301 254 238 322 31 233 269 246 282 295 292 278 237 230
156 156 155 139 118 57 78 42 91 113 212 78 111 110 187 168 207 175 166 220 221 219 239 289 279 191 174 222 153 176 213 267 294 309 328 158 243 311 40 282 279 283 263 211 207
150 153 157 154 105 66 179 153 199 185 123 157 138 150 180 192 235 210 223 244 217 194 217 211 257 156 194 158 200 143 212 62 259 199 263 297 266 280 281 330 267 247 230 168 198
146 152 159 148 103 73 91 229 225 218 213 193 151 268 193 206 210 201 236 137 338 210 250 257 279 234 119 156 111 258 137 216 188 265 285 282 281 290 323 357 349 271 228 197 189
142 144 172 167 43 312 181 248 277 238 208 195 151 134 187 176 203 192 304 357 27 84 177 169 240 150 194 209 196 154 193 100 199 282 298 300 285 291 300 315 313 300 243 205 189
145 99 160 165 53 28 177 218 324 333 27 206 102 96 130 143 162 191 216 268 337 194 169 170 221 256 42 345 294 280 131 193 270 294 237 285 283 241 274 301 298 300 214 199 182
104 96 150 155 172 25 305 286 289 330 31 22 93 43 54 99 170 198 193 196 2 165 192 178 212 248 188 169 166 228 153 129 124 175 261 286 292 230 292 292 290 270 190 169 182
136 117 134 187 107 98 1 35 134 54 79 57 104 118 111 98 69 197 230 347 15 95 139 159 159 258 274 300 12 224 206 206 241 266 287 269 290 298 295 300 303 277 201 175 165
93 104 151 168 170 131 175 334 127 147 79 55 101 94 156 155 177 213 218 282 214 53 116 260 273 212 248 238 234 263 258 238 229 257 266 291 294 288 299 312 314 317 208 183 170
102 127 128 108 131 161 163 189 181 156 233 149 172 158 183 173 212 216 200 220 256 180 46 26 265 218 260 266 245 259 261 261 259 265 258 271 278 290 302 319 329 327 219 205 210
77 100 136 175 141 181 196 182 183 184 145 138 166 179 227 323 312 285 232 327 303 280 273 249 212 230 274 295 292 268 250 252 263 238 256 276 305 337 316 332 327 289 246 226 213